Location: Czekanka
(50.4925°N, 19.2643°E)
Time: 12:24:53
(UTC+00:00)

FENGYUN 1C DEB - Pass Details

Date: 21 November 2025
Orbit: 800 x 866 km, 98.6° (Epoch: 04 December)

Event Time Altitude Azimuth Distance (km) Brightness Sun altitude
Rises 04:37:55 0° 7° (N) 3,334 ? -13.9°
Reaches altitude 10° 04:40:37 10° 355° (N) 2,393 ? -13.5°
Maximum altitude 04:44:50 25° 301° (WNW) 1,567 ? -12.8°
Drops below altitude 10° 04:49:03 10° 248° (WSW) 2,376 ? -12.2°
Sets 04:51:43 0° 235° (SW) 3,304 ? -11.8°
